P/2004 R1 ( McNaught )

Japanese version
Home page
Updated on January 15, 2005

---------------------------------------------------------------------

* Profile

Discovery Date September 2, 2004
Magnitude 17.6 mag
Discoverer R. H. McNaught (Siding Spring)

* Orbital Elements

T 2004 Aug. 30.2125 TT                                  MPC
q   0.988497             (2000.0)            P               Q
n   0.1795045      Peri.    0.6065      +0.4478832      +0.8908027
a   3.112331       Node   296.0036      -0.8206720      +0.3755820
e   0.682393       Incl.    4.8906      -0.3548212      +0.2557513
P   5.49
>From 44 observations 2004 Sept. 2-Nov. 9.

* Finding Charts

* Magnitudes Graph

        m1 = 18.5 + 5 log d + 15.0 log r

---------------------------------------------------------------------

The orbital elements are published on M.P.E.C. 2004-V72.
The charts are made with StellaNavigator Ver.2.0 for Windows (AstroArts / ASCII).
The magnitudes graphs are made with Comet for Windows.

---------------------------------------------------------------------

Copyright(C) Seiichi Yoshida (comet@aerith.net). All rights reserved.